Regional Weather Roundup
Issued by NWS Charleston, WV

Home | Current Version | Previous Version | Text Only | Print | Product List | Glossary Off
Versions: 1 2 3 4 5 6 7 8 9 10 11 12 13 14 15 16 17 18 19 20 21 22 23 24 25 26 27 28 29 30 31 32 33 34 35 36 37 38 39 40 41 42 43 44 45 46 47 48 49 50

000
ASUS41 KRLX 131110
RWRRLX
West Virginia Regional Weather Roundup
National Weather Service Charleston WV
600 AM EST WED DEC 13 2017

Note: "fair" indicates few or no clouds below 12,000 feet with no
significant weather and/or obstructions to visibility.

WVZ003-131200-
Northern Panhandle of West Virginia

CITY           SKY/WX    TMP DP  RH WIND       PRES   REMARKS
WHEELING       CLOUDY    16   3  56 W13       29.85R WCI   2
$$

WVZ009-131200-
Northwest West Virginia

CITY           SKY/WX    TMP DP  RH WIND       PRES   REMARKS
PARKERSBURG    CLOUDY    20  11  68 SW10      29.95R WCI   9
$$

WVZ006-131200-
Western West Virginia

CITY           SKY/WX    TMP DP  RH WIND       PRES   REMARKS
HUNTINGTON     CLEAR     18   7  62 SW3       29.97S
$$

WVZ015-131200-
West Central West Virginia

CITY           SKY/WX    TMP DP  RH WIND       PRES   REMARKS
CHARLESTON     CLEAR     19   8  62 SW10      29.96R WCI   7
$$

WVZ022-031-131200-
North Central West Virginia

CITY           SKY/WX    TMP DP  RH WIND       PRES   REMARKS
CLARKSBURG     LGT SNOW  19  12  74 SW7       29.88R WCI  10
MORGANTOWN     CLOUDY    18   5  57 W9        29.86R WCI   7
$$

WVZ025-035-042-045-131200-
Southern West Virginia

CITY           SKY/WX    TMP DP  RH WIND       PRES   REMARKS
BECKLEY        CLEAR     12   3  67 W10       29.84R WCI  -1
LOGAN            N/A     18   7  62 VRB7G13   29.92S WCI   8
BLUEFIELD      CLOUDY    12   2  64 NW15G24   29.81R WCI  -4
LEWISBURG      CLOUDY    15   5  63 NW13G29   29.81R WCI   2
$$

WVZ047-131200-
Northern Mountains of West Virginia

CITY           SKY/WX    TMP DP  RH WIND       PRES   REMARKS
ELKINS         LGT SNOW  15   8  73 W13G18    29.81R WCI   1
$$

WVZ052-131200-
Eastern Panhandle of West Virginia

CITY           SKY/WX    TMP DP  RH WIND       PRES   REMARKS
MARTINSBURG    CLEAR     19   0  43 W14G31    29.79R WCI   6
PETERSBURG     CLOUDY    20   4  51 W21G29    29.82S WCI   3
$$



USA.gov is the U.S. government's official web portal to all federal, state and local government web resources and services.